Starlink 32890

operational
NORAD ID: 62896 Int'l Des: 2025-024 Owner: SPXS Country: US Constellation: starlink
LEOCIRCULAR

About Starlink 32890

Description loading...

Live Position

Loading 3D Globe...

Upcoming Passes

Altitude History

Altitude vs Time

uPlot chart will show altitude changes over time

Two-Line Element Set

1 62896U 25024T 25305.54490063 .00044209 00000-0 16052-2 0 9995
2 62896 43.0033 328.5631 0002072 280.0346 80.0272 15.27605737 42679
Epoch: Nov 1, 2025 • Age: 18 hours

Current Status

Altitude 487.3 km
Velocity 7.63 km/s
Sub-Earth Point 43.14°N, 86.26°W
Launch Date Feb 4, 2025
Age 0.7 years
Type internet

Technical Details

Classification Payload
Mass 730.00 kg
Dry Mass 700.00 kg
Total Mass 730.00 kg
Length 0.30 m
Diameter 4.10 m
Span 29.00 m
Shape Box + pan
Manufacturer SPXS
Bus Type Starlink V2M
Phase Status In Orbit
Owner/State SPXS/US

Large Constellations

Loading constellations...